Tracking 19490 objects as of 23-Jan-2019
HD Live streaming from Space Station
objects crossing your sky now

RADUGA 13

Track RADUGA 13 now!
RADUGA 13 is classified as:


NORAD ID: 14307
Int'l Code: 1983-088A
Perigee: 36,306.1 km
Apogee: 36,478.6 km
Inclination: 14.3 °
Period: 1,466.8 minutes
Semi major axis: 42763 km
RCS: 1.9952 m2 (large)
Launch date: August 25, 1983
Source: Commonwealth of Independent States (former USSR) (CIS)
Launch site: TYURATAM MISSILE AND SPACE COMPLEX (TTMTR)
aabbcc
Your satellite tracking list
Your tracking list is empty




NASA's NSSDC Master Catalog

Two Line Element Set (TLE):
1 14307U 83088A   19022.51291786 -.00000083  00000-0  00000+0 0  9996
2 14307  14.3344 335.8716 0020177 358.8504   7.5024  0.98173771 92405
Source of the keplerian elements: AFSPC